sat.trackr.live / text

‹ back to catalog

GSAT0201 (GALILEO 5)

NORAD 40128 · 2014-050A

PAYLOAD ACTIVE UNKNOWN

§ Identity

Operator
Country
ESA
Launch date
2014-08-22
Launch site
FRGUI
Launch vehicle
Mass (kg)
RCS (m²)
4.12

Purposes: earth_obs, nav

External: N2YO · Heavens-Above · Gunter

§ Orbital elements

Epoch: 2026-09-06T19:17:18.220704Z

Period
776.20 min
Inclination
48.7898°
Eccentricity
0.1685582
Mean motion
1.85519498 rev/d
Perigee alt
16,883.5 km
Apogee alt
26,315.2 km
Semi-major
27,977.5 km
B*
0.0000e+0
RAAN
270.0811°
Arg perigee
182.5488°
Mean anomaly
176.4959°
Rev number
7,983

§ Raw data

GSAT0201 (GALILEO 5)1 40128U 14050A   26249.80368311  .00000019  00000+0  00000+0 0  99962 40128  48.7898 270.0811 1685582 182.5488 176.4959  1.85519498 79839

JSON: /api/v1/satellites/40128 · /tle

For live sub-satellite position, see the globe view (requires WebGL).

§ Visibility from observer

Set your observer location to see the next 7 days of passes ≥ 10°. The values pass through the URL so the page stays shareable.

No JS? Fill the form by hand. The geolocation button needs JavaScript.